World > North America > United States > Wyoming > Archer  

Archer, WY Hourly Weather Updates

Feedback E-mail the Weather

Quick Clicks

Archer, WY Weather Maps

°F °C°F °C
Archer Weather Map
UTC Time: 6/17/2024, 16:45
Your Time:

Archer, WY Regional Weather

Expires:202406171700;;181441
ASUS45 KCYS 171610
RWRWY 

WYOMING REGIONAL WEATHER ROUNDUP
NATIONAL WEATHER SERVICE CHEYENNE WY
1000 AM MDT MON JUN 17 2024

NOTE:  "FAIR" INDICATES FEW OR NO CLOUDS BELOW 12,000 FEET
WITH NO SIGNIFICANT WEATHER AND/OR OBSTRUCTIONS TO VISIBILITY.


WYZ021-027>030-104>119-171700-
...SOUTHERN WYOMING...
  
CITY           SKY/WX    TMP DP  RH WIND       PRES   REMARKS
EVANSTON       SUNNY     65  33  30 SW20G29   29.73F                  
KEMMERER       SUNNY     64  27  24 W16G24    29.72F                  
FORT BRIDGER   SUNNY     70  25  18 W20       29.75F                  
ROCK SPRINGS   SUNNY     72  31  22 SW14      29.70F                  
DIXON          SUNNY     74  32  21 S16G28    29.75F                  
RAWLINS        SUNNY     69  37  30 CALM      29.72F                  
SARATOGA       SUNNY     77  23  13 S21G31    29.75F                  
LARAMIE        MOSUNNY   76  34  21 S14G22    29.78F                  
CHEYENNE       MOSUNNY   65  52  62 S9        29.77F                  
TORRINGTON     CLOUDY    61  52  72 SE13      29.70F                  
PINE BLUFFS      N/A     55  54  94 CALM      29.76F                  

$$
  

SKY/WX - Weather  TMP - Temperature  DP - Dew Point  RH - Humidity
WIND - Wind Direction/Speed PRES - Barometric Pressure VSB - Visibility
WCI - Wind Chill Index E13G22 Wind - East Wind 13 mph/Gusts of 22 mph

Trending Headlines

Trending Entertainment Headlines

Archer Radar Loop

Use the map search tool if you want to place a location marker on the radar map...

Archer Quick Facts

National Two Day Weather Forecast


E-mail the Archer Weather Forecast

Voice your opinion or tell us about page issues...